SB KEPS @ AMSAT $ORB12285.N 2Line Orbital Elements 12285.AMSAT
HR AMSAT ORBITAL ELEMENTS FOR AMATEUR SATELLITES IN NASA FORMAT FROM WA5QGD FORT WORTH,TX October 11, 2012 BID: ORB12285.N
DECODE 2-LINE ELSETS WITH THE FOLLOWING KEY: 1 AAAAAU 00 0 0 BBBBB.BBBBBBBB .CCCCCCCC 00000-0 00000-0 0 DDDZ 2 AAAAA EEE.EEEE FFF.FFFF GGGGGGG HHH.HHHH III.IIII JJ.JJJJJJJJKKKKKZ KEY: A-CATALOGNUM B-EPOCHTIME C-DECAY D-ELSETNUM E-INCLINATION F-RAAN G-ECCENTRICITY H-ARGPERIGEE I-MNANOM J-MNMOTION K-ORBITNUM Z-CHECKSUM
TO ALL RADIO AMATEURS BT
AO-07 1 07530U 74089B 12284.54406943 -.00000027 00000-0 10000-3 0 05030 2 07530 101.4121 277.3381 0012216 056.3496 303.8739 12.53591863734508 FO-29 1 24278U 96046B 12284.84366523 -.00000112 00000-0 -80928-4 0 09607 2 24278 098.5862 010.3749 0351253 089.9153 274.2229 13.52989879797597 SO-33 1 25509U 98061B 12284.69490101 .00000774 00000-0 14215-3 0 03439 2 25509 031.4311 039.9828 0351645 134.1397 228.8708 14.28835689729183 RS-22 1 27939U 03042A 12285.52143805 .00000611 00000-0 12449-3 0 8041 2 27939 097.8032 120.3386 0012272 257.1627 102.8222 14.64162501482908 VO-52 1 28650U 05017B 12285.90894416 .00001698 00000-0 21256-3 0 2315 2 28650 097.5890 311.1180 0026934 020.1270 340.1008 14.83250294402271 HO-68 1 36122U 09072B 12285.73468733 -.00000044 00000-0 00000 0 0 9090 2 36122 100.3467 342.6591 0007448 199.6645 160.4196 13.16298786135726 UO-11 1 14781U 84021B 12285.77223597 .00000474 00000-0 68621-4 0 9987 2 14781 097.9412 344.1923 0009573 021.4523 338.7087 14.80593703537182 AO-16 1 20439U 90005D 12284.86022359 .00000151 00000-0 71888-4 0 05960 2 20439 098.4399 225.0510 0010749 172.0277 188.1078 14.32093512186552 LO-19 1 20442U 90005G 12284.86576553 .00000252 00000-0 10880-3 0 05241 2 20442 098.4080 227.6649 0011935 163.7384 196.4181 14.32309612186747 AO-27 1 22825U 93061C 12284.87855401 .00000195 00000-0 93519-4 0 02273 2 22825 098.5855 225.9482 0007836 304.7328 055.3108 14.29494567993008 IO-26 1 22826U 93061D 12284.85718195 .00000137 00000-0 70280-4 0 09835 2 22826 098.5793 226.2679 0008308 298.7575 061.2768 14.29771342993134 GO-32 1 25397U 98043D 12284.47869845 .00000124 00000-0 72924-4 0 08969 2 25397 098.3779 257.5965 0000792 358.5370 001.5802 14.23297628740426 NO-44 1 26931U 01043C 12284.73787059 .00000126 00000-0 81187-4 0 1565 2 26931 067.0514 182.5194 0005866 252.8751 107.1723 14.29840668575760 SO-50 1 27607U 02058C 12283.67780720 .00000560 00000-0 10566-3 0 08867 2 27607 064.5578 306.5852 0075347 225.5038 133.9907 14.72558771526821 CO-55 1 27844U 03031E 12284.60521043 .00000333 00000-0 17362-3 0 4817 2 27844 098.7042 291.3193 0008807 248.0684 111.9609 14.21086593481289 CO-57 1 27848U 03031J 12285.54480205 .00000283 00000-0 15108-3 0 4314 2 27848 098.7102 291.6327 0008744 251.0054 109.0207 14.20830680481350 AO-51 1 28375U 04025K 12284.83342281 .00000284 00000-0 97541-4 0 3857 2 28375 098.1617 244.8210 0084717 050.7903 310.0780 14.41000494435425 CP3 1 31129U 07012N 12285.51891659 .00000750 00000-0 17910-3 0 2859 2 31129 097.8866 286.4768 0101645 120.8638 240.2565 14.53242548290876 CO-65 1 32785U 08021C 12285.82739799 .00001332 00000-0 16899-3 0 4392 2 32785 097.7851 344.0508 0015433 045.0394 315.1980 14.83260861241057 PRISM 1 33493U 09002B 12285.76063345 .00003375 00000-0 40639-3 0 1530 2 33493 098.1874 069.2623 0017663 279.1770 080.7452 14.84489606201048 SOHLA-1 1 33496U 09002E 12284.88701744 .00000520 00000-0 94797-4 0 08752 2 33496 098.1143 035.9254 0007332 039.9014 320.2718 14.70069173199248 SO-67 1 35870U 09049F 12285.77108605 .00005041 00000-0 20616-3 0 4091 2 35870 097.2227 317.4142 0003816 111.2676 339.2774 15.24768338170378 TISAT-1 1 36799U 10035E 12285.79743615 .00002228 00000-0 28472-3 0 4279 2 36799 098.0542 002.9583 0015803 151.9037 208.2970 14.82356671121762 STUDSAT 1 36801U 10035G 12284.84696881 .00004941 00000-0 57874-3 0 05071 2 36801 098.0606 003.2889 0013275 140.8336 219.3846 14.85429232121683 FO-69 1 37227U 0 12285.31789631 .00000882 00000-0 13205-3 0 03094 2 37227 071.9697 055.6713 0015407 106.3938 253.8951 14.77208102053245 FO-70 1 37380U 0 12285.47854676 .00000956 00000-0 14329-3 0 03116 2 37380 071.9735 056.0236 0015903 102.9186 257.3770 14.76956800053153 ALMASAT-1 1 38078U 12006B 12285.79470628 .00024834 00000-0 68999-3 0 6426 2 38078 069.4762 052.3767 0737386 102.3210 266.1304 14.13711995 34005 XATCOBEO 1 38082U 12006F 12285.78221195 .00057979 00000-0 13849-2 0 6129 2 38082 069.4823 046.5937 0689282 099.1817 268.7742 14.26956411 34157 NOAA-10 1 16969U 86073A 12284.94734441 .00000202 00000-0 99582-4 0 00956 2 16969 098.5730 311.8950 0011349 255.5333 104.4580 14.27583535356386 NOAA-11 1 19531U 88089A 12284.75911884 -.00000033 00000-0 52746-5 0 00876 2 19531 098.7265 007.4594 0010335 254.7583 105.2435 14.14984371240854 NOAA-12 1 21263U 91032A 12284.93101220 .00000010 00000-0 23111-4 0 05836 2 21263 098.7235 306.0210 0013091 222.6387 137.3778 14.25522129113044 MET-3/5 1 21655U 91056A 12284.46828282 -.00000280 00000-0 -75980-3 0 00015 2 21655 082.5552 070.7356 0013758 039.0126 321.1986 13.17043161016825 MET-2/21 1 22782U 93055A 12284.63757766 -.00000004 00000-0 -16749-4 0 05518 2 22782 082.5464 300.9135 0022237 184.9351 175.1584 13.83688915965137 OKEAN-4 1 23317U 94066A 12285.82373246 .00001128 00000-0 13224-3 0 239 2 23317 082.5359 282.1426 0020830 332.1957 027.8149 14.83996732972100 NOAA-14 1 23455U 94089A 12284.82151776 -.00000006 00000-0 20269-4 0 00567 2 23455 098.8231 006.8347 0009625 352.8155 007.2877 14.13874754917137 NOAA-15 1 25338U 98030A 12284.62244900 .00000231 00000-0 11708-3 0 04356 2 25338 098.7025 270.5120 0011276 129.2553 230.9618 14.25128989749294 RESURS 1 25394U 98043A 12284.96363867 .00000047 00000-0 38276-4 0 02075 2 25394 098.3316 267.1749 0000445 297.8881 062.2253 14.24300473740882 FENGYUN1 1 25730U 99025A 12284.90642181 .00000088 00000-0 74720-4 0 07279 2 25730 098.8535 241.9363 0021448 030.7298 329.5112 14.09773193690915 OKEAN-0 1 25860U 99039A 12284.91338214 .00000540 00000-0 89057-4 0 7573 2 25860 097.9524 245.2909 0000634 094.2784 265.8497 14.74332940711622 NOAA-16 1 26536U 00055A 12284.61908938 .00000208 00000-0 13648-3 0 09268 2 26536 099.0818 328.4534 0011393 117.9317 242.3025 14.12789759621330 NOAA-17 1 27453U 02032A 12284.78105128 .00000062 00000-0 44186-4 0 08698 2 27453 098.3307 305.9411 0011910 172.9359 187.1960 14.24491228535219 NOAA-18 1 28654U 05018A 12284.66529438 .00000378 00000-0 23255-3 0 03508 2 28654 099.0615 243.7975 0014025 186.8758 173.2210 14.11711721380855 NOAA-19 1 33591U 09005A 12284.69919545 .00000022 00000-0 36272-4 0 05387 2 33591 098.8731 223.1024 0015050 056.0809 304.1784 14.11396075189307 HUBBLE 1 20580U 90037B 12284.95396560 .00001913 00000-0 12687-3 0 862 2 20580 028.4694 105.7673 0003248 206.4993 153.5499 15.02877865 32166 ISS 1 25544U 98067A 12285.86180905 .00017083 00000-0 29765-3 0 4519 2 25544 051.6476 261.6894 0017769 155.8664 287.0425 15.50690175796146 CO-58 1 28895U 05043F 12285.80871761 .00000697 00000-0 15149-3 0 2998 2 28895 097.8982 146.8563 0018605 141.0210 219.2346 14.60781092370688 FALCON 1 30776U 07006E 12284.45950629 .00004615 00000-0 29286-3 0 4567 2 30776 035.4331 292.3339 0002642 282.3180 077.7241 15.08431906307660 MAST 1 31126U 07012K 12285.57419685 .00000520 00000-0 12540-3 0 5792 2 31126 097.8758 289.8825 0094656 107.6566 253.4991 14.54279985291180 CAPE1 1 31130U 07012P 12285.70616127 .00000522 00000-0 12795-3 0 5897 2 31130 097.8874 286.3365 0102237 121.0660 240.0599 14.53097592290697 COMPASS 1 32787U 08021E 12284.68962657 .00002357 00000-0 28575-3 0 04345 2 32787 097.7885 343.4184 0015926 046.2792 313.9716 14.84449008240944 AAUSAT2 1 32788U 08021F 12284.76768667 .00002098 00000-0 25283-3 0 04266 2 32788 097.7868 343.9424 0015556 048.5144 311.7406 14.84806935240985 DO-64 1 32789U 08021G 12284.89009309 .00004529 00000-0 51547-3 0 04434 2 32789 097.8015 346.5546 0015047 041.8360 318.3976 14.86617205241063 CO-66 1 32791U 08021J 12284.72749741 .00001893 00000-0 23445-3 0 04235 2 32791 097.7868 343.0983 0016352 047.3332 312.9283 14.83784104240877 RS-30 1 32953U 08025A 12285.83658584 .00000010 00000-0 00000 0 0 2221 2 32953 082.5018 222.5909 0020356 054.3672 305.9304 12.43028389199058 PHARMSAT 1 35002U 09028B 12226.86484473 .07728342 73476-5 57159-3 0 789 2 35002 040.4341 050.6671 0012079 300.9773 059.0492 16.39309245183554 METEOR-M 1 35865U 09049A 12285.75204511 -.00000071 00000-0 -12443-4 0 8607 2 35865 098.6401 337.8104 0003372 076.1729 283.9816 14.21871105159169 RS-38 1 35869U 09049E 12285.75559471 -.00000013 00000-0 13461-4 0 8447 2 35869 098.6356 337.7895 0005601 076.7746 283.4003 14.22091646159180 JUGNU 1 37839U 11058B 12285.62658424 .00000620 00000-0 19019-3 0 2455 2 37839 019.9595 012.7939 0018869 066.4963 293.7475 14.12088381 51725 SRMSAT 1 37841U 11058D 12285.62740874 .00000264 00000-0 00000 0 0 2471 2 37841 019.9689 019.9417 0012067 028.2135 331.9040 14.10170178 51641 RAX-2 1 37853U 11061D 12284.88959903 .00004825 00000-0 38204-3 0 3097 2 37853 101.7043 017.7883 0243561 020.7592 340.3293 14.81026950 51516 AUBIESAT 1 37854U 11061E 12284.94652981 .00005241 00000-0 40808-3 0 03109 2 37854 101.7061 018.2825 0243746 019.9923 341.0622 14.81492548051527 HRBE 1 37855U 11061F 12285.85126164 .00004771 00000-0 37270-3 0 3061 2 37855 101.7085 019.5155 0244899 017.4034 343.5372 14.81309209 51654 RS-39 1 38051U 11062C 12285.86790509 .00009744 00000-0 38196-3 0 7867 2 38051 051.6354 323.0631 0013972 093.1452 263.4998 15.26317073 39779 E-STAR 1 38079U 12006C 12285.72383750 .00049414 00000-0 11872-2 0 5662 2 38079 069.4773 047.8423 0704377 099.9667 268.1603 14.23649968 34114 GOLIAT 1 38085U 12006J 12285.73218347 .00049771 00000-0 12049-2 0 5336 2 38085 069.4832 048.5308 0709329 100.4081 267.7693 14.22440169 34099 HORYU-2 1 38340U 12025D 12285.82757397 .00001646 00000-0 28108-3 0 1906 2 38340 098.1852 225.8847 0012393 326.2977 033.7458 14.70257183 21611 RS-40 1 38736U 12041D 12285.56721265 .00000010 00000-0 00000 0 0 774 2 38736 082.4771 310.1484 0019485 147.0477 213.1821 12.42646795 9368 PROITERES 1 38756U 12047B 12285.87837604 .00000812 00000-0 13175-3 0 1199 2 38756 098.2815 352.0513 0013262 171.6518 188.4915 14.73908261 4816 AENEAS 1 38760U 0 12285.63418111 .00004663 00000-0 43425-3 0 00392 2 38760 064.6742 315.7090 0218665 281.5750 225.8995 14.79105703004085 OBJECT D 1 38761U 0 12285.63398458 .00003082 00000-0 29125-3 0 00344 2 38761 064.6739 315.6908 0219640 281.6033 237.4379 14.79182964004087 OBJECT E 1 38762U 0 12285.63371359 .00003677 00000-0 34386-3 0 00341 2 38762 064.6748 315.6866 0219416 281.3263 240.4842 14.79239544004080 OBJECT F 1 38763U 0 12285.63372642 .00003045 00000-0 28749-3 0 00321 2 38763 064.6740 315.6834 0219648 281.5472 242.2846 14.79241291003927 OBJECT G 1 38764U 0 12285.63331274 .00002834 00000-0 26880-3 0 00327 2 38764 064.6733 315.6795 0219569 281.6381 240.8814 14.79251868004086 OBJECT H 1 38765U 0 12285.63079299 .00003771 00000-0 35169-3 0 00370 2 38765 064.6737 315.6833 0219324 281.5901 230.2625 14.79307956004083 OBJECT J 1 38766U 0 12285.62829259 .00003206 00000-0 30075-3 0 00306 2 38766 064.6721 315.6698 0219494 281.5491 228.0895 14.79395065004080 1998067CN 1 38852U 98067CN 12284.94161481 .00034078 00000-0 56652-3 0 00087 2 38852 051.6480 266.2171 0019250 144.9617 215.2645 15.51537498000919 1998067CP 1 38853U 98067CP 12284.94147275 .00040671 00000-0 67425-3 0 00078 2 38853 051.6475 266.2191 0014925 157.2300 202.9281 15.51613332000973 1998067CQ 1 38854U 98067CQ 12284.87666330 .00052033 00000-0 85465-3 0 00067 2 38854 051.6479 266.5332 0014399 152.6575 207.5187 15.51770880000963 1998067CR 1 38855U 98067CR 12284.94118099 .00049463 00000-0 81414-3 0 00085 2 38855 051.6493 266.2168 0014236 155.7883 204.3806 15.51737119000860 /EX
participants (1)
-
Ray Hoad